Lexington Weather

Lexington, Massachusetts, USA

29°F
4/1/2020 3:43am 
  • Lexington Conditions: Clear
  • Temperature: 29.3°F / -1.5°CColder 0.4°F than last hour.
  • Dew Point: 27.3°FDecreased 0.4°Fsince last hour.
  • Relative Humidity: 92
  • Wind: Wind from ESE ESE 1 mph, 10-min avg: 1 mph, gust: 2 mph
  • Barometer: 29.88 in Steady
  • Visibility: 10 miles
  • Snow Today: 0.0 in
  •   

Regional Weather Roundup
for Boston / Norton, MA

        
000
ASUS41 KBOX 291705
RWRBOX

REGIONAL WEATHER ROUNDUP
NATIONAL WEATHER SERVICE BOSTON/NORTON MA
100 PM EDT SUN MAR 29 2020

NOTE:  "FAIR" INDICATES FEW OR NO CLOUDS BELOW 12,000 FEET WITH NO 
SIGNIFICANT WEATHER AND/OR OBSTRUCTIONS TO VISIBILITY.

MAZALL-291800-
EASTERN MASSACHUSETTS
  
CITY           SKY/WX    TMP DP  RH WIND       PRES   REMARKS
BOSTON         LGT RAIN  41  38  89 SE8       30.20R FOG              
BEVERLY        LGT RAIN  42  36  79 E9        30.18R                  
LAWRENCE       RAIN      41  38  89 VRB3      30.21R FOG              
BEDFORD        RAIN      43  40  89 E7        30.19R FOG              
BLUE HILL        N/A     41  41 100 E8        30.15R                  
NORWOOD        LGT RAIN  45  42  89 CALM      30.20R FOG              
MARSHFIELD     LGT RAIN  43  43 100 SE9       30.16R VSB 1            
PLYMOUTH       LGT RAIN  43  41  93 E12       30.13S FOG              
TAUNTON        LGT RAIN  44  43  96 VRB5      30.13S FOG              
NEW BEDFORD    CLOUDY    44  42  93 E9        30.10S FOG              
$$

MAZALL-291800-
CAPE COD AND THE ISLANDS
  
CITY           SKY/WX    TMP DP  RH WIND       PRES   REMARKS
FALMOUTH       CLOUDY    43  41  93 SE17G29   30.10F                  
HYANNIS        CLOUDY    46  40  79 E13G23    30.09S                  
CHATHAM        CLOUDY    44  38  79 E14G24    30.12F                  
PROVINCETOWN   CLOUDY    45  34  65 E10G17    30.16R                  
NANTUCKET      CLOUDY    47  40  76 E23G31    30.08F                  
MARTHAS VNYRD  CLOUDY    47  41  80 E18G29    30.08S                  
$$
 
MAZALL-291800-
CENTRAL AND WESTERN MASSACHUSETTS
  
CITY           SKY/WX    TMP DP  RH WIND       PRES   REMARKS
WORCESTER      LGT RAIN  43  42  97 E13G23    30.06F VSB 1/4          
FITCHBURG      LGT RAIN  43  40  89 E15G21    30.10F FOG              
ORANGE         LGT RAIN  47  43  86 E10       30.07F                  
SPRINGFIELD    CLOUDY    47  46  97 E3        30.05F                  
WESTFIELD      CLOUDY    46  43  89 CALM      30.06F                  
NORTH ADAMS    CLOUDY    46  40  79 E16G28    30.00F                  
PITTSFIELD     CLOUDY    45  40  82 E14G23    29.99R                  
$$
 
RIZALL-291800-
RHODE ISLAND
  
CITY           SKY/WX    TMP DP  RH WIND       PRES   REMARKS
PROVIDENCE     HVY RAIN  45  44  97 NE10      30.14R VSB 1            
NEWPORT        LGT RAIN  46  43  89 VRB6      30.14R FOG              
BLOCK ISLAND   CLOUDY    44  42  93 E14G22    30.07                   
SMITHFIELD     RAIN      44  44 100 E12       30.10F FOG              
WESTERLY       LGT RAIN  47  42  83 NE12G22   30.09R                  
$$
 
CTZALL-291800-
CONNECTICUT
  
CITY           SKY/WX    TMP DP  RH WIND       PRES   REMARKS
BRADLEY INTL   CLOUDY    47  44  90 E9        30.05F                  
HARTFORD       CLOUDY    48  44  86 E7        30.04F                  
BRIDGEPORT     LGT RAIN  46  44  93 E18       30.02R                  
DANBURY        CLOUDY    47  44  90 E14G24    29.99F                  
GROTON         RAIN      44  44 100 E14       30.07S VSB 1            
NEW HAVEN      LGT RAIN  48  45  89 E13G20    30.02F FOG              
CHESTER        LGT RAIN  45  45 100 E12G20    30.01F                  
MERIDEN        CLOUDY    47  44  90 VRB3      30.03F                  
WILLIMANTIC    LGT RAIN  46  44  93 VRB6      30.06F                  
OXFORD         CLOUDY    46  44  93 E12       30.02F                  
$$

MEZ002-015-021-024-NHZ003-005-008-011-012-014-VTZ005-008-291800-
NORTHERN NEW ENGLAND
  
CITY           SKY/WX    TMP DP  RH WIND       PRES   REMARKS
PORTLAND ME    LGT RAIN  44  36  73 E8        30.23F                  
BANGOR ME      CLOUDY    51  23  33 SE12      30.25R                  
CONCORD NH     LGT RAIN  40  35  83 SE12G17   30.19R                  
MANCHESTER NH  LGT RAIN  42  39  89 E8        30.17R FOG              
NASHUA NH      RAIN      42  42 100 E12       30.18R FOG              
PORTSMOUTH NH  LGT RAIN  40  37  88 E9        30.18  FOG              
JAFFREY NH     RAIN      42  40  92 VRB3      30.08F FOG              
KEENE NH       LGT RAIN  45  42  89 VRB3      30.07F                  
BURLINGTON VT  LGT RAIN  46  39  76 S14G30    29.94F                  
MT. WASHINGTON FOG       23  23 100 SE44G52     N/A  VSB 0   WCI   3  
$$

NYZ052-076-291800-
EASTERN NEW YORK
  
CITY           SKY/WX    TMP DP  RH WIND       PRES   REMARKS
ALBANY         CLOUDY    50  43  77 SE10      29.96F                  
NEW YORK CITY  DRIZZLE   47  44  90 NE16      29.93F FOG              
$$
 
ANZALL-291800-
MARINE OBSERVATIONS
  
STATION/POSITION TIME  TEMP    WIND        PRES    VSBY  WAVE
                       AIR SEA DIR/SP/G                  HT/PER
                 (UTC) (F)     (DEG/KT/KT) (MB)    (MI)  (FT/S)
BOSTON BUOY      1650   44 43  110/ 14/ 21 1021.0F         3/ 5
BUZZARDS BAY     1600          100/ 22/ 26 1019.3F
NANTUCKET SOUND  1640                        N/A           3/ 5
MASS BAY-STELLWA 1604   43 42  110/ 12/ 16 1019.9F  1 7/8  3/ 5
ISLE OF SHOALS   1600   42      90/ 14/ 15 1022.2F
S OF BLOCK IS    1630      44                N/A           9/ 8
$$

......................KEY.........................
  SKY/WX - SKY CONDITION/PRESENT WEATHER
  TMP    - TEMPERATURE IN FAHRENHEIT
  DWPT   - DEWPOINT IN FAHRENHEIT
  RH     - RELATIVE HUMIDITY IN PERCENT
  WIND   - DIRECTION AND SPEED IN MPH
  PRES   - MEAN SEA LEVEL PRESSURE IN INCHES OF HG
  WCI    - WIND CHILL INDEX
  VSB    - VISIBILITY IN MILES
  HX     - HEAT INDEX
  TC     - TEMPERATURE IN CELSIUS
  VRB    - VARIABLE WIND DIRECTION
  N/A    - NOT AVAILABLE
  
      

Other recent Regional Weather Roundups

Wed Apr 1, 3:04am

Wed Apr 1, 2:04am

Wed Apr 1, 1:04am

Wed Apr 1, 12:04am

Tue Mar 31, 11:04pm

Tue Mar 31, 10:04pm

Tue Mar 31, 9:04pm

Tue Mar 31, 8:04pm

Tue Mar 31, 7:04pm

Tue Mar 31, 6:04pm

Tue Mar 31, 4:04pm

Tue Mar 31, 3:04pm

Tue Mar 31, 2:04pm

Tue Mar 31, 1:04pm

Tue Mar 31, 12:05pm

Tue Mar 31, 11:04am

Tue Mar 31, 10:05am

Tue Mar 31, 9:04am

Tue Mar 31, 8:04am

Tue Mar 31, 7:05am

Tue Mar 31, 6:04am

Tue Mar 31, 5:04am

Tue Mar 31, 4:04am

Tue Mar 31, 3:04am

Tue Mar 31, 2:04am

Tue Mar 31, 1:04am

Tue Mar 31, 12:04am

Mon Mar 30, 11:04pm

Mon Mar 30, 10:04pm

Mon Mar 30, 9:05pm

Mon Mar 30, 8:04pm

Mon Mar 30, 7:04pm

Mon Mar 30, 6:04pm

Mon Mar 30, 5:05pm

Mon Mar 30, 4:04pm

Mon Mar 30, 3:04pm

Mon Mar 30, 2:04pm

Mon Mar 30, 1:04pm

Mon Mar 30, 12:04pm

Mon Mar 30, 11:04am

Mon Mar 30, 10:04am

Mon Mar 30, 9:04am

Mon Mar 30, 8:04am

Mon Mar 30, 7:04am

Mon Mar 30, 6:04am

Mon Mar 30, 5:04am

Mon Mar 30, 4:04am

Mon Mar 30, 3:05am

Mon Mar 30, 2:04am

Mon Mar 30, 1:04am

Mon Mar 30, 12:04am

Sun Mar 29, 11:04pm

Sun Mar 29, 10:05pm

Sun Mar 29, 9:04pm

Sun Mar 29, 8:04pm

Sun Mar 29, 7:04pm

Sun Mar 29, 6:04pm

Sun Mar 29, 5:05pm

Sun Mar 29, 4:04pm

Sun Mar 29, 3:04pm

Sun Mar 29, 2:04pm

Sun Mar 29, 12:04pm

Sun Mar 29, 11:04am

Sun Mar 29, 10:04am

Sun Mar 29, 9:04am

Sun Mar 29, 8:04am

Sun Mar 29, 7:04am

Sun Mar 29, 6:04am

Sun Mar 29, 5:04am

Sun Mar 29, 4:04am

Meta data:

ID: d9fe09b7-b94f-462d-8882-158904f2c1bb
Link: https://api.weather.gov/products/d9fe09b7-b94f-462d-8882-158904f2c1bb